Meteo Giornale » Osservazioni meteo Italia » Roma Fiumicino

ore: 06:20 - Osservazioni Meteo Roma Fiumicino
Lat. 41° 48' N Lon. 12° 14' E Alt. 2 metri s.l.m.

sereno Europe/Rome

9 °C

Sereno

Temp. 24 Ore

9 °C

19 °C

Est

7.4 Km/h

Dew point 9 °C

Umidità 100 %

Visibilità  10 Km

Il sole sorge alle ore 05:50

Il sole tramonta alle ore 20:24

Data e Ora Cielo e Fenomeni T °C DP °C Um. % Pres. hPa Vis. km Vento km/h
Oggi h: 06:20 sereno Sereno 9 9 100 1011 10 E 7.4
Oggi h: 05:50 sereno Sereno 10 9 93 1010 10 E 7.4
Oggi h: 05:20 sereno Sereno 9 9 100 1010 10 E/NE 7.4
Oggi h: 04:50 sereno Sereno 11 10 93 1010 10 N 5.5
Oggi h: 04:20 sereno Sereno 10 9 93 1010 10 N 3.7
Oggi h: 03:50 sereno Sereno 11 10 93 1010 10 N 3.7
Oggi h: 03:20 sereno Sereno 11 10 93 1010 10 N 5.5
Oggi h: 02:50 sereno Sereno 12 10 87 1010 10 N 5.5
Oggi h: 02:20 sereno Sereno 12 11 93 1010 10 N 7.4
Oggi h: 01:50 sereno Sereno 14 12 87 1010 10 NO 11.1
Oggi h: 01:20 sereno Sereno 16 12 77 1010 10 O 18.5
Oggi h: 00:20 sereno Sereno 16 11 72 1010 10 O/SO 22.2
Ieri h: 23:50 sereno Sereno 16 11 72 1010 10 O/SO 24
Ieri h: 23:20 poco_nuvoloso Poco Nuvoloso 16 11 72 1010 10 O/SO 24
Ieri h: 22:20 sereno Sereno 16 11 72 1009 10 O/SO 25.9
Ieri h: 21:20 sereno Sereno 16 10 67 1009 10 O/SO 25.9
Ieri h: 20:50 sereno Sereno 16 9 63 1009 10 O/SO 27.8
Ieri h: 20:20 sereno Sereno 16 9 63 1009 10 O/SO 29.6
Ieri h: 19:50 sereno Sereno 17 7 51 1009 10 O/SO 35.2
Ieri h: 19:20 sereno Sereno 18 7 48 1009 10 O/SO 35.2
Ieri h: 18:50 sereno Sereno 18 7 48 1008 10 O/SO 40.7
Ieri h: 18:20 sereno Sereno 18 9 55 1009 10 O 25.9
Ieri h: 17:20 poco_nuvoloso Poco Nuvoloso 19 11 59 1009 10 O 24
Ieri h: 16:50 nuvoloso Nuvoloso 19 13 68 1009 10 O/SO 18.5
Ieri h: 16:20 poco_nuvoloso Poco Nuvoloso 19 13 68 1009 10 O/SO 22.2
Ieri h: 15:50 nuvoloso Nuvoloso 19 12 63 1009 10 O/SO 27.8
Ieri h: 15:20 poco_nuvoloso Poco Nuvoloso 19 14 72 1009 10 O 24
Ieri h: 14:50 nuvoloso Nuvoloso 19 14 72 1009 10 O/SO 20.3
Ieri h: 14:20 nuvoloso Nuvoloso 19 14 72 1009 10 O/SO 22.2
Ieri h: 13:50 nuvoloso Nuvoloso 19 14 72 1009 10 O/SO 22.2
Ieri h: 13:20 nuvoloso Nuvoloso 18 13 72 1009 10 O/SO 16.7
Ieri h: 12:50 nuvoloso Nuvoloso 18 14 77 1009 10 O/SO 20.3
Ieri h: 12:20 nuvoloso Nuvoloso 19 13 68 1009 10 SO 18.5
Ieri h: 11:50 nuvoloso Nuvoloso 19 14 72 1009 10 O/SO 11.1
Ieri h: 11:20 nuvoloso Nuvoloso 19 14 72 1009 10 O 14.8
Ieri h: 10:50 nuvoloso Nuvoloso 18 14 77 1009 10 O 20.3
Ieri h: 10:20 nuvoloso Nuvoloso 19 14 72 1009 10 O/SO 18.5
Ieri h: 09:50 nuvoloso Nuvoloso 18 14 77 1009 10 O/SO 22.2
Ieri h: 09:20 nuvoloso Nuvoloso 18 14 77 1009 10 O/SO 24
Ieri h: 08:50 nuvoloso Nuvoloso 17 14 82 1008 10 O/SO 20.3
Ieri h: 08:20 nuvoloso Nuvoloso 17 14 82 1008 10 O/SO 20.3
Ieri h: 07:50 nuvoloso Nuvoloso 16 13 82 1008 10 O/SO 20.3
Ieri h: 07:20 nuvoloso Nuvoloso 16 13 82 1008 10 O/SO 24
Ieri h: 06:50 molto_nuvoloso Molto Nuvoloso 16 13 82 1008 10 O/SO 24